This is the latest recevied weather packets stored in our database for station/object SV9TNF-57. If no packets are shown the sender has not sent any weather packets the latest 10 day(s).
| Time | Temp. | Humidity | Pressure | Rain* | Wind** | Luminosity | Snow |
|---|---|---|---|---|---|---|---|
| 1787953293 | 27.22° C | 55% | 995.8 hPa | 0 mm | 6.71 m/s, 329° | - | - |
| 1787952993 | 27.22° C | 55% | 995.6 hPa | 0 mm | 8.49 m/s, 309° | - | - |
| 1787952693 | 27.22° C | 55% | 995.6 hPa | 0 mm | 8.49 m/s, 304° | - | - |
| 1787952392 | 27.22° C | 55% | 995.5 hPa | 0 mm | 7.15 m/s, 9° | - | - |
| 1787952092 | 27.22° C | 56% | 995.5 hPa | 0 mm | 0.89 m/s, 316° | - | - |
| 1787951792 | 26.67° C | 56% | 996 hPa | 0 mm | 7.15 m/s, 332° | - | - |
| 1787951492 | 26.67° C | 57% | 995.7 hPa | 0 mm | 8.05 m/s, 18° | - | - |
| 1787951192 | 26.67° C | 57% | 995.4 hPa | 0 mm | 6.71 m/s, 7° | - | - |
| 1787950892 | 26.67° C | 58% | 995.5 hPa | 0 mm | 7.15 m/s, 320° | - | - |
| 1787950592 | 26.67° C | 59% | 995.8 hPa | 0 mm | 4.92 m/s, 304° | - | - |
| 1787950292 | 27.22° C | 59% | 995.6 hPa | 0 mm | 4.47 m/s, 325° | - | - |
| 1787949992 | 27.22° C | 59% | 995.6 hPa | 0 mm | 6.26 m/s, 301° | - | - |
| 1787949692 | 27.22° C | 60% | 995.5 hPa | 0 mm | 4.02 m/s, 321° | - | - |
| 1787949391 | 26.67° C | 61% | 995.5 hPa | 0 mm | 5.36 m/s, 319° | - | - |
| 1787949091 | 26.67° C | 62% | 995.7 hPa | 0 mm | 8.05 m/s, 329° | - | - |
| 1787948791 | 26.67° C | 63% | 995.7 hPa | 0 mm | 9.39 m/s, 327° | - | - |
| 1787948491 | 26.67° C | 63% | 995.7 hPa | 0 mm | 5.36 m/s, 327° | - | - |
| 1787948191 | 26.67° C | 63% | 995.7 hPa | 0 mm | 5.36 m/s, 45° | - | - |
| 1787947891 | 26.67° C | 64% | 995.8 hPa | 0 mm | 6.71 m/s, 339° | - | - |
| 1787947591 | 26.67° C | 64% | 995.9 hPa | 0 mm | 7.15 m/s, 322° | - | - |
| 1787947291 | 26.67° C | 65% | 995.7 hPa | 0 mm | 7.15 m/s, 352° | - | - |
| 1787946991 | 26.67° C | 65% | 995.7 hPa | 0 mm | 7.15 m/s, 301° | - | - |
| 1787946690 | 26.67° C | 65% | 995.6 hPa | 0 mm | 8.49 m/s, 315° | - | - |
| 1787946391 | 26.67° C | 66% | 995.8 hPa | 0 mm | 6.26 m/s, 300° | - | - |
| 1787946091 | 26.67° C | 66% | 995.5 hPa | 0 mm | 9.39 m/s, 347° | - | - |
* Rain latest hour (hover to see other rain measurements)
** Current wind speed in m/s (hover to see current wind gust speed)